Dewpoint
52 52 51 52 51 51 51 52 52 52 53 52 52 52 52 51 51 50 50 50 50 50 51 51 51 51 52 52 52 53 53 48 46 44 39 41 47 57 56 57 57 58 58 27 28 30 29 27 26 24 21 18 16 15 14 12 10 12 14 9 7 7 4 -0 -4 -3 -4 -3 -0 4 8 8 7 4 5 16 18 15 13 17 45 47 49 52 56 61 62 63
52 51 51 51 52 52 52 52 52 52 53 53 53 53 53 53 52 51 51 51 50 50 51 51 52 52 52 52 52 52 51 48 46 43 39 49 57 55 54 60 58 57 52 21 22 26 27 21 20 20 18 16 14 12 11 9 12 11 12 10 6 4 1 -1 -2 -2 -1 -3 0 5 9 8 7 6 8 11 13 17 15 14 49 50 55 55 61 62 63 64
51 51 52 52 52 52 53 52 52 53 53 53 53 53 52 53 53 53 52 52 51 51 51 51 51 51 52 52 52 53 50 47 46 42 38 57 59 56 58 58 59 58 26 18 21 23 22 20 17 17 16 13 10 8 8 5 12 10 11 8 5 3 1 -1 -2 -6 4 4 2 1 4 7 6 6 12 15 18 19 15 8 48 48 55 58 60 62 63 64
51 52 52 52 52 52 52 53 52 52 53 53 53 53 53 53 52 52 52 52 52 51 52 51 51 51 52 52 52 51 49 47 41 37 43 57 56 59 58 59 58 55 28 19 22 22 20 18 17 14 12 9 7 7 4 5 11 10 7 4 3 2 -0 -1 -4 -1 2 3 2 1 3 4 5 3 10 7 11 14 15 11 15 52 55 57 60 61 63 64
51 51 51 51 52 52 52 52 52 52 52 53 52 52 53 53 53 53 53 53 52 52 52 51 51 51 52 52 52 50 47 40 33 38 46 58 59 56 61 57 60 34 24 21 26 28 22 17 16 12 10 8 5 5 4 6 7 6 5 3 1 -0 -3 -1 0 2 3 1 3 4 4 4 2 5 7 6 6 13 15 16 11 44 54 58 61 62 63 63
50 51 51 52 52 52 52 52 52 52 52 52 52 52 53 53 53 54 53 53 53 52 52 51 51 51 52 52 50 46 44 25 30 35 58 61 59 58 60 63 62 41 21 25 29 27 21 17 12 8 8 6 4 4 5 4 4 5 5 5 3 3 3 3 2 1 4 3 3 3 2 2 4 6 6 5 12 17 39 46 43 33 53 57 61 63 64 63
50 51 51 52 52 52 52 52 52 52 52 52 52 53 53 53 53 54 53 53 52 51 51 51 51 51 52 52 48 46 42 39 38 36 62 61 59 57 58 58 58 31 29 29 28 22 13 10 7 5 3 2 2 3 3 4 4 1 3 2 2 3 1 1 -1 1 3 3 3 1 3 4 5 4 4 3 9 15 37 46 49 50 54 58 60 63 64 63
50 50 51 51 51 51 52 52 52 52 52 52 52 52 52 53 53 53 53 52 52 53 52 51 51 51 52 46 43 43 43 41 39 45 60 60 54 49 55 34 26 26 29 30 28 17 10 6 5 3 1 -2 -1 1 2 2 3 -1 -0 3 2 -0 0 2 0 -1 -0 2 1 1 1 4 5 4 6 17 17 21 44 49 47 51 54 59 62 63 63 62
50 50 50 51 51 51 52 52 52 52 52 52 52 52 52 53 53 53 53 53 52 52 52 51 51 51 52 48 43 39 33 34 37 45 55 45 33 35 30 22 25 28 29 31 29 16 11 6 6 3 -0 -0 -1 -3 1 -0 2 1 3 2 1 -3 -2 0 1 -1 -1 -1 0 1 2 4 4 3 5 9 16 31 46 52 51 51 53 57 60 61 61 61
50 50 50 50 51 51 52 52 52 52 52 52 52 52 52 52 52 52 52 52 52 51 51 51 52 51 49 44 43 39 27 34 35 35 30 27 23 25 23 23 25 28 28 26 21 15 10 6 2 2 0 2 3 6 0 0 2 3 3 1 0 -4 -6 -1 -0 -0 -1 -0 2 1 2 3 3 5 6 8 25 34 48 47 51 53 53 56 58 60 61 61
50 50 50 50 50 51 51 51 52 52 52 52 52 52 52 52 52 52 52 53 52 51 51 51 51 51 44 43 41 38 25 28 31 26 27 23 22 21 24 27 23 25 24 19 18 15 12 6 11 8 10 4 4 5 3 1 -0 -2 -3 2 3 2 -1 -2 -1 1 2 3 4 2 3 3 2 7 7 19 33 33 47 48 46 47 48 48 57 58 59 61
50 50 50 50 51 51 51 51 51 51 51 52 52 52 52 52 52 52 52 53 53 52 51 51 51 47 46 44 43 40 23 21 22 26 25 23 21 23 27 29 23 21 21 19 15 13 10 10 16 12 5 12 6 0 -1 -1 -0 1 4 5 5 6 3 2 -0 1 5 3 2 3 3 2 5 8 8 18 31 30 38 40 46 47 46 47 55 58 59 58
51 50 50 50 50 51 51 51 51 51 52 51 52 52 52 52 52 52 52 52 52 52 52 51 51 47 48 43 41 36 23 20 26 26 25 24 24 26 28 27 22 20 21 19 9 10 10 13 15 11 11 12 11 4 10 5 2 3 3 3 0 -2 -2 1 0 0 1 1 0 3 3 3 3 5 11 27 29 29 38 37 39 46 49 47 52 56 57 58
51 50 50 50 50 51 51 51 51 51 51 51 51 51 51 52 52 52 52 52 53 53 53 52 50 49 47 43 34 24 24 27 22 22 25 24 24 25 25 23 23 24 25 24 17 13 13 13 12 13 14 14 13 10 12 8 6 3 1 -2 -0 -2 -0 -0 0 1 -1 -2 -0 4 6 2 3 5 18 24 25 27 34 35 37 42 43 47 51 54 57 58
51 50 50 51 50 51 51 51 51 51 51 51 51 51 51 51 51 51 52 52 53 53 53 52 48 46 47 44 31 29 58 30 18 22 20 20 23 19 17 20 21 22 23 20 15 14 14 14 14 11 10 10 8 7 6 5 6 4 0 1 -1 -1 -2 -2 3 0 -1 -0 6 5 10 2 1 8 16 17 23 27 31 41 36 42 45 47 48 52 54 56
50 50 51 51 51 51 51 51 51 51 51 51 51 51 51 51 51 52 52 52 52 54 51 48 49 44 41 35 30 46 23 20 21 21 18 16 16 9 12 13 15 16 15 13 15 16 13 13 11 12 13 14 9 6 5 3 5 4 1 12 3 -1 -4 1 3 1 3 1 6 4 2 1 3 4 13 16 17 21 28 41 38 43 45 47 48 50 53 55
50 50 51 50 51 51 50 50 51 51 51 51 51 51 51 52 53 52 52 52 50 50 47 44 43 49 44 28 25 18 19 22 23 18 17 17 13 10 11 13 13 14 13 15 15 16 14 11 13 15 11 11 12 5 6 8 9 7 1 2 4 3 -3 -0 3 4 3 0 3 5 2 2 11 13 14 13 12 15 21 39 42 44 46 52 48 50 52 54
51 51 51 51 51 51 50 50 50 51 51 51 50 50 49 52 53 52 52 51 49 47 45 44 42 40 36 37 30 23 19 24 21 18 14 16 17 14 11 13 14 13 14 12 14 13 15 15 12 15 18 15 11 9 10 8 14 13 12 8 4 4 4 2 3 5 5 3 5 6 5 3 11 13 14 12 12 12 18 23 48 48 50 50 52 48 51 52
51 51 51 51 51 51 51 51 51 51 51 51 51 52 52 52 50 49 47 44 43 43 34 37 41 30 19 29 28 23 21 25 19 20 15 16 18 17 13 15 13 12 13 14 12 11 14 18 22 17 17 15 10 8 7 15 15 14 11 8 2 12 5 0 4 6 7 7 3 4 4 3 7 8 12 17 16 17 18 27 32 48 49 48 49 47 49 51
51 51 51 51 51 51 51 51 50 50 50 50 51 51 53 53 51 48 48 45 39 31 22 29 32 26 23 23 24 25 24 21 18 20 18 17 15 15 13 15 14 13 15 20 17 18 17 16 14 16 15 20 26 23 27 22 18 17 15 11 6 5 5 4 6 8 10 10 6 5 7 6 5 10 15 15 19 19 19 25 30 51 48 45 48 46 48 50
51 51 51 51 51 51 51 51 50 50 49 49 50 50 47 32 29 31 36 42 42 38 30 28 26 22 20 20 24 24 22 20 19 18 19 19 16 14 13 14 14 19 15 15 23 25 21 18 18 18 24 29 28 30 30 26 24 16 15 10 6 7 8 4 5 11 11 18 11 13 10 9 12 14 13 17 19 15 20 23 29 24 42 43 43 50 48 50
51 51 51 51 51 51 51 51 50 50 50 49 49 45 43 31 30 32 33 27 27 34 29 28 26 19 18 24 23 22 20 19 16 18 18 18 14 13 13 11 13 14 16 17 19 25 21 16 16 20 29 27 28 28 24 24 21 18 14 10 6 4 1 15 15 15 12 19 16 10 8 9 12 11 12 17 20 26 24 26 27 29 26 27 25 38 49 48
51 51 51 51 51 50 50 50 50 51 51 52 48 44 41 32 32 32 36 32 31 31 26 22 23 23 21 24 24 22 19 17 14 17 17 18 15 13 13 9 10 11 13 20 17 21 18 13 18 13 27 25 23 22 22 23 24 16 16 11 6 5 4 16 23 14 15 19 15 11 9 14 23 17 18 21 18 24 29 24 29 30 29 30 27 44 48 49
51 51 51 51 51 51 50 51 51 51 50 47 42 36 36 31 32 34 37 35 33 33 25 22 20 18 18 21 23 21 18 19 17 17 19 16 14 14 13 12 8 6 5 11 15 12 8 19 22 25 24 21 22 21 21 19 12 19 18 10 9 5 3 3 15 22 28 26 28 19 19 16 18 14 16 20 20 25 22 20 21 23 20 32 43 49 50 47
51 51 51 51 51 51 51 51 50 48 48 46 39 38 35 34 38 38 38 36 34 29 33 25 18 16 14 19 21 17 16 18 18 16 18 15 12 13 11 12 11 9 5 5 9 10 6 25 26 18 17 19 20 17 21 24 17 16 21 19 15 15 14 13 21 21 20 19 24 21 16 12 14 16 15 14 17 19 21 21 17 20 25 24 25 44 48 48
51 50 51 51 51 51 51 46 43 40 40 41 40 37 34 31 39 41 41 37 30 27 25 18 17 13 14 19 21 15 18 18 19 15 18 16 17 13 11 8 10 7 5 4 4 10 10 25 24 20 18 18 17 15 17 23 19 17 15 20 16 13 18 17 15 19 19 17 21 27 16 14 11 10 14 15 14 18 23 22 20 19 20 20 24 25 49 48
50 51 50 51 51 51 46 39 45 36 32 29 33 36 31 30 48 42 41 34 28 28 19 16 11 16 22 23 21 17 17 17 16 18 17 17 13 15 13 12 10 7 8 21 15 5 7 10 17 19 20 17 17 15 19 16 18 12 25 16 14 16 18 18 16 18 17 22 22 20 16 16 15 15 16 15 16 15 21 22 24 19 21 22 26 25 33 34
50 50 50 51 51 51 49 51 40 29 32 33 33 32 30 42 43 45 39 26 26 28 21 15 14 23 20 20 20 14 19 16 16 16 18 16 15 14 13 12 10 6 10 12 10 24 26 23 22 19 19 15 12 12 20 18 15 16 25 18 16 16 21 16 12 14 17 18 14 13 15 13 12 16 15 14 15 19 21 24 21 18 17 21 24 22 23 29
50 50 50 50 51 51 51 49 45 34 27 26 31 32 34 46 41 41 36 26 24 17 23 16 21 22 19 19 19 16 12 17 15 17 19 17 15 15 12 10 11 10 8 13 10 20 13 12 13 18 14 13 12 10 12 16 14 18 13 15 18 19 18 19 17 15 20 18 17 16 20 12 14 18 14 13 13 20 23 23 20 20 20 18 21 23 30 22
50 49 49 49 51 52 51 52 48 38 29 28 30 38 43 42 38 36 28 24 26 18 17 18 17 17 19 19 19 17 16 13 14 16 17 17 16 15 15 16 14 12 9 8 7 6 14 21 20 11 12 12 13 13 15 15 17 18 20 19 18 16 17 18 19 20 22 17 16 18 18 14 12 16 14 18 20 19 20 22 24 22 22 19 29 22 25 24
49 48 48 49 47 43 46 44 43 42 35 36 43 42 40 39 34 30 25 26 19 17 16 18 17 17 16 15 15 16 16 18 14 15 14 16 16 14 13 13 12 13 14 14 12 5 6 10 11 10 9 7 6 6 9 9 13 14 14 16 14 16 17 19 20 22 19 15 16 14 16 17 12 14 22 19 20 20 24 25 25 26 22 23 32 25 24 22
48 48 48 49 48 49 44 41 39 42 44 46 45 41 37 29 30 25 26 29 22 16 13 13 13 12 14 13 12 12 13 15 14 13 11 12 17 15 13 12 18 10 8 11 11 11 13 9 9 8 13 4 3 3 2 4 8 7 10 10 15 13 18 18 18 16 16 16 17 13 14 13 11 18 19 15 17 19 23 22 22 24 24 29 25 26 24 25
47 47 48 48 49 49 45 41 41 49 48 47 44 38 33 27 24 26 24 22 23 14 13 12 12 11 11 12 11 12 14 13 14 13 11 11 12 15 13 10 10 15 13 20 15 15 14 11 11 9 6 10 5 3 3 0 5 8 9 15 14 14 14 15 14 18 16 20 18 22 18 14 14 15 16 16 19 20 21 26 26 25 30 31 24 26 24 30
47 48 48 51 49 47 44 53 49 48 49 47 41 36 28 25 24 28 22 20 22 15 13 10 12 12 11 11 11 10 10 11 11 10 9 12 11 18 14 11 9 13 18 23 14 15 14 13 12 12 11 9 7 3 3 7 8 9 11 11 15 15 16 17 14 13 14 12 16 12 16 14 14 37 19 22 19 20 20 19 26 30 30 34 22 22 28 32
47 50 53 54 53 50 50 45 49 51 51 46 38 30 25 25 24 22 20 13 13 16 14 12 10 7 9 9 6 8 11 15 12 11 10 9 14 16 16 14 12 9 12 12 20 18 8 10 9 8 8 7 6 5 4 2 4 6 8 10 13 21 18 14 16 14 14 14 16 18 16 17 24 23 22 23 20 19 19 20 26 26 25 25 28 30 32 37
48 52 54 50 52 55 51 46 50 52 49 39 33 25 23 25 23 13 10 5 4 10 13 11 10 8 10 6 7 8 10 11 9 10 10 8 8 9 8 10 12 10 12 11 16 11 6 8 3 5 6 8 9 7 4 5 10 14 7 12 10 15 13 18 20 19 21 15 13 17 19 17 26 19 20 21 20 17 16 19 20 20 22 31 31 32 35 40
37 42 50 49 43 43 44 43 42 49 48 37 29 24 27 23 18 15 18 6 9 10 12 12 13 8 13 10 12 8 7 10 9 9 12 6 8 5 3 7 11 10 7 9 15 9 12 14 5 5 7 7 6 4 4 3 4 3 6 6 8 10 17 20 14 16 13 12 16 16 19 10 16 13 15 18 17 16 15 16 16 26 29 31 36 39 40 41
45 42 41 33 34 39 42 44 45 46 40 34 28 32 24 21 18 14 9 6 10 12 11 12 16 9 9 9 11 10 11 8 11 8 6 4 9 4 3 8 10 12 9 10 11 15 12 10 8 7 1 1 3 6 7 7 4 1 2 1 3 10 11 14 16 11 10 12 10 12 8 9 4 11 15 17 17 19 17 16 19 24 27 33 37 40 41 43
46 40 31 26 26 39 40 43 46 41 36 28 26 24 22 18 16 13 9 9 5 8 6 4 9 10 11 13 12 10 11 12 8 7 6 6 4 15 7 7 9 11 11 10 10 14 17 13 13 8 5 1 4 7 9 8 4 2 2 1 0 7 15 11 15 12 14 14 15 16 10 10 10 25 20 19 19 21 17 17 19 23 24 33 39 41 42 44
44 36 30 34 31 39 39 47 42 37 31 24 25 23 19 15 12 9 1 9 11 8 7 4 4 9 9 11 10 14 11 10 8 9 6 11 5 15 13 10 10 12 13 12 9 9 15 25 15 19 6 4 2 12 7 6 7 6 2 6 8 19 14 6 17 5 7 10 9 10 9 16 31 21 20 20 23 30 31 22 24 24 32 35 39 43 44 44
41 37 32 40 33 38 45 41 32 28 26 25 22 19 18 15 11 12 13 13 11 7 4 7 9 12 11 12 13 12 12 11 9 9 7 7 6 16 15 12 13 12 13 12 10 15 15 16 14 11 6 6 5 3 5 6 9 12 13 15 12 20 26 12 11 8 10 12 12 8 10 17 27 29 25 25 25 28 25 22 30 32 34 40 42 44 44 44
34 27 27 41 44 45 41 31 28 28 26 23 22 19 16 30 13 14 14 14 13 8 4 6 8 10 16 14 13 12 12 10 10 11 9 8 6 6 12 15 13 12 12 15 13 27 28 26 20 15 11 7 5 3 5 -3 5 8 10 11 9 15 14 12 11 13 14 15 16 16 15 21 29 28 27 30 27 21 27 33 30 35 38 39 41 41 43 43
33 24 41 43 46 41 33 25 27 25 25 21 18 16 14 14 16 15 14 8 7 7 5 5 9 10 11 11 12 12 12 15 11 9 7 5 13 15 15 13 13 9 8 11 4 23 25 21 14 11 10 9 4 -1 -3 -3 5 5 6 10 9 11 14 14 13 14 10 14 10 11 14 23 32 25 27 31 26 25 33 24 29 35 37 38 39 40 40 40
36 36 32 37 44 36 31 25 20 19 22 20 20 16 14 13 17 15 13 10 8 9 10 9 9 9 11 10 12 10 11 17 10 10 11 8 14 14 13 12 11 4 5 24 21 29 21 21 15 10 9 6 6 0 -4 -5 -6 7 10 15 10 8 8 14 13 16 14 14 13 14 13 18 30 29 23 22 20 21 22 30 35 35 37 36 36 37 38 38
38 37 29 30 34 35 26 25 23 17 21 22 20 19 17 15 12 15 15 14 13 7 14 16 15 16 14 12 12 13 13 11 19 8 8 7 15 15 14 13 12 11 25 26 34 21 21 23 19 13 12 11 10 7 5 8 7 11 11 12 13 10 17 14 10 14 15 19 16 16 14 24 27 28 22 22 21 21 22 22 24 33 34 33 35 37 38 37
36 27 28 21 29 27 25 23 21 18 22 27 26 24 24 23 19 15 13 13 12 15 17 15 14 15 15 16 17 13 11 12 11 15 9 9 10 15 15 12 10 23 32 35 30 22 22 23 20 18 13 11 11 6 12 11 13 10 11 11 9 11 13 17 16 16 15 19 17 18 19 22 30 22 22 21 25 22 24 26 26 29 33 36 37 36 37 37
35 27 28 28 32 27 24 20 14 16 18 23 20 21 25 22 21 15 18 21 13 10 13 14 11 16 19 17 20 18 15 13 11 10 10 8 5 9 14 13 11 29 33 25 22 17 19 20 18 20 17 11 9 9 10 11 9 8 9 11 7 11 17 18 18 15 18 15 14 19 22 22 20 20 18 24 23 24 25 26 28 32 34 35 35 36 40 35
28 32 29 33 29 27 24 20 23 22 23 22 24 24 24 25 23 23 14 16 17 15 19 17 14 12 12 16 21 22 19 18 18 22 13 10 5 16 11 14 12 34 24 14 16 19 19 16 17 18 12 9 8 8 9 10 10 10 9 9 11 12 17 21 24 18 22 17 12 20 22 22 18 18 20 21 22 24 23 26 32 37 35 33 35 35 33 34
33 35 32 36 33 29 26 27 27 24 22 25 27 25 25 24 24 21 20 24 22 22 15 21 19 13 14 11 15 16 23 22 23 25 25 22 19 20 17 12 14 18 17 19 16 24 22 18 19 15 13 12 11 10 11 10 10 10 10 8 8 17 18 18 17 15 15 20 21 20 23 25 20 19 20 21 26 24 23 27 36 24 28 30 34 39 31 31
32 34 31 36 38 31 27 26 26 23 21 25 23 23 22 25 25 23 20 20 23 24 23 25 21 15 14 10 13 18 32 32 32 29 34 31 28 26 24 26 21 22 15 19 18 24 22 18 23 20 19 17 15 12 11 10 11 11 7 8 10 12 11 13 18 21 24 19 20 21 24 24 20 22 21 23 27 22 24 23 23 26 23 29 34 35 32 29
32 37 38 35 33 25 21 24 22 22 20 22 23 24 22 20 23 19 22 17 19 24 23 25 21 25 23 15 17 26 26 29 29 29 29 27 26 26 23 24 17 20 17 19 23 28 25 20 21 21 19 19 14 12 10 10 9 10 13 15 15 15 19 21 21 22 21 23 22 23 21 22 19 21 22 23 21 20 21 24 24 25 21 24 25 27 29 30
33 35 38 36 31 31 17 23 23 21 23 27 25 24 21 19 15 16 25 19 18 17 19 21 24 24 24 25 29 27 26 25 25 23 21 20 20 18 17 17 15 19 21 21 25 21 23 21 19 19 17 18 15 13 11 15 15 14 20 22 19 19 18 19 16 20 24 25 23 20 17 17 25 28 24 21 25 28 28 23 26 29 30 28 21 26 28 30